This is the latest recevied weather packets stored in our database for station/object W6ORV. If no packets are shown the sender has not sent any weather packets the latest 10 day(s).
| Time | Temp. | Humidity | Pressure | Rain* | Wind** | Luminosity | Snow |
|---|---|---|---|---|---|---|---|
| 1777848295 | 17.78° C | 56% | 4297.4 hPa | 0 mm | - | 603 W/m² | - |
| 1777847993 | 17.22° C | 56% | 4297.3 hPa | 0 mm | - | 693 W/m² | - |
| 1777847691 | 17.78° C | 55% | 4297.5 hPa | 0 mm | - | 679 W/m² | - |
| 1777847386 | 18.33° C | 55% | 4297.5 hPa | 0 mm | - | 688 W/m² | - |
| 1777847085 | 17.22° C | 57% | 4297.3 hPa | 0 mm | - | 792 W/m² | - |
| 1777846783 | 17.22° C | 56% | 4297.2 hPa | 0 mm | - | 445 W/m² | - |
| 1777846481 | 18.33° C | 56% | 4297.5 hPa | 0 mm | - | 544 W/m² | - |
| 1777846177 | 17.78° C | 56% | 4297.6 hPa | 0 mm | - | 765 W/m² | - |
| 1777845873 | 17.78° C | 57% | 4297.3 hPa | 0 mm | - | 309 W/m² | - |
| 1777845571 | 17.78° C | 57% | 4297.5 hPa | 0 mm | - | 536 W/m² | - |
| 1777845268 | 17.78° C | 57% | 4297.5 hPa | 0 mm | - | 354 W/m² | - |
| 1777844965 | 17.78° C | 55% | 4297.9 hPa | 0 mm | - | 711 W/m² | - |
| 1777844663 | 17.78° C | 57% | 4297.7 hPa | 0 mm | - | 332 W/m² | - |
| 1777844360 | 17.22° C | 56% | 4297.7 hPa | 0 mm | - | 408 W/m² | - |
| 1777844058 | 17.22° C | 57% | 4297.7 hPa | 0 mm | - | 367 W/m² | - |
| 1777843754 | 17.22° C | 58% | 4297.6 hPa | 0 mm | - | 465 W/m² | - |
| 1777843452 | 17.22° C | 56% | 4297.5 hPa | 0 mm | - | 407 W/m² | - |
| 1777843149 | 16.67° C | 59% | 4297.4 hPa | 0 mm | - | 375 W/m² | - |
| 1777842846 | 17.78° C | 57% | 4298 hPa | 0 mm | - | 337 W/m² | - |
| 1777842541 | 17.22° C | 57% | 4297.5 hPa | 0 mm | - | 1006 W/m² | - |
| 1777842239 | 16.67° C | 57% | 4297.6 hPa | 0 mm | - | 845 W/m² | - |
| 1777841939 | 16.67° C | 58% | 4297.9 hPa | 0 mm | - | 386 W/m² | - |
| 1777841636 | 17.22° C | 58% | 4297.5 hPa | 0 mm | - | 356 W/m² | - |
| 1777841332 | 16.67° C | 58% | 4297.6 hPa | 0 mm | - | 402 W/m² | - |
| 1777841029 | 16.11° C | 60% | 4297.9 hPa | 0 mm | - | 564 W/m² | - |
* Rain latest hour (hover to see other rain measurements)
** Current wind speed in m/s (hover to see current wind gust speed)